Location: �terpigny
(49.8910°N, 2.9249°E)
Time: 03:54:37
(UTC+00:00)

Cosmos 614 Rocket - Pass Details

Date: 31 May 2022
Orbit: 732 x 764 km, 74.1° (Epoch: 06 July)

Event Time Altitude Azimuth Distance (km) Brightness Sun altitude
Rises 00:00:08 0° 340° (NNW) 3,219 8.5 -18.2°
Reaches altitude 10° 00:02:42 10° 349° (N) 2,295 7.6 -18.1°
Maximum altitude 00:07:29 36° 56° (NE) 1,193 5.3 -18.1°
Drops below altitude 10° 00:12:17 10° 123° (ESE) 2,295 6.2 -18.0°
Enters shadow 00:12:48 - 125° (SE) 2,477 6.4 -18.0°
